This is the latest recevied weather packets stored in our database for station/object KU9TRY. If no packets are shown the sender has not sent any weather packets the latest 10 day(s).
| Time | Temp. | Humidity | Pressure | Rain* | Wind** | Luminosity | Snow |
|---|---|---|---|---|---|---|---|
| 1787788629 | 26.11° C | 79% | 1015 hPa | 0 mm | - | 11 W/m² | - |
| 1787788329 | 26.11° C | 77% | 1015 hPa | 0 mm | - | 16 W/m² | - |
| 1787788025 | 26.11° C | 78% | 1014.9 hPa | 0 mm | - | 20 W/m² | - |
| 1787787720 | 26.11° C | 77% | 1014.9 hPa | 0 mm | - | 26 W/m² | - |
| 1787787418 | 26.67° C | 76% | 1014.9 hPa | 0 mm | - | 28 W/m² | - |
| 1787787119 | 26.67° C | 77% | 1014.9 hPa | 0 mm | - | 27 W/m² | - |
| 1787786813 | 26.67° C | 76% | 1014.9 hPa | 0 mm | - | 29 W/m² | - |
| 1787786508 | 26.67° C | 77% | 1014.8 hPa | 0 mm | - | 28 W/m² | - |
| 1787786203 | 27.22° C | 77% | 1014.8 hPa | 0 mm | - | 28 W/m² | - |
| 1787785899 | 27.78° C | 78% | 1014.7 hPa | 0 mm | - | 38 W/m² | - |
| 1787785594 | 27.78° C | 76% | 1014.9 hPa | 0 mm | - | 59 W/m² | - |
| 1787785289 | 27.78° C | 77% | 1014.9 hPa | 0 mm | - | 78 W/m² | - |
| 1787784988 | 27.78° C | 77% | 1015 hPa | 0 mm | - | 85 W/m² | - |
| 1787784688 | 27.22° C | 78% | 1015 hPa | 0 mm | - | 92 W/m² | - |
| 1787784387 | 27.22° C | 76% | 1014.8 hPa | 0 mm | - | 101 W/m² | - |
| 1787784087 | 27.22° C | 77% | 1015.1 hPa | 0 mm | - | 99 W/m² | - |
| 1787783784 | 27.22° C | 75% | 1015.1 hPa | 0 mm | - | 100 W/m² | - |
| 1787783483 | 27.22° C | 76% | 1014.9 hPa | 0 mm | - | 91 W/m² | - |
| 1787783179 | 27.22° C | 74% | 1014.8 hPa | 0 mm | - | 94 W/m² | - |
| 1787782874 | 27.22° C | 72% | 1014.7 hPa | 0 mm | - | 93 W/m² | - |
| 1787782263 | 27.22° C | 70% | 1014.9 hPa | 0 mm | - | 93 W/m² | - |
| 1787781959 | 27.22° C | 74% | 1015.1 hPa | 0 mm | - | 92 W/m² | - |
| 1787781654 | 27.22° C | 74% | 1014.9 hPa | 0 mm | - | 88 W/m² | - |
| 1787781351 | 27.22° C | 73% | 1015 hPa | 0 mm | - | 111 W/m² | - |
| 1787781050 | 26.67° C | 72% | 1014.7 hPa | 0 mm | - | 99 W/m² | - |
* Rain latest hour (hover to see other rain measurements)
** Current wind speed in m/s (hover to see current wind gust speed)